North Platte, NE

4:43 AM CST on January 18, 2018 (GMT -0600)
North Platte Regional-Bird

Weather History for KLBF - October, 2013

Change the Weather History Date:

Thursday, October 10, 2013

  Actual Average Record
Temperature  
Mean Temperature 61 °F 51 °F  
Max Temperature 78 °F 67 °F 93 °F (1910)
Min Temperature 43 °F 36 °F 19 °F (2009)
Degree Days  
Heating Degree Days 4 14  
Month to date heating degree days 101 120  
Since 1 July heating degree days 184 291  
Cooling Degree Days 0 0  
Month to date cooling degree days 0 0  
Year to date cooling degree days 998 765  
Growing Degree Days 10 (Base 50)    
Moisture  
Dew Point 48 °F    
Average Humidity 67    
Maximum Humidity 96    
Minimum Humidity 38    
Precipitation  
Precipitation 0.34 in 0.05 in 0.53 in (2009)
Month to date precipitation 0.37 0.53  
Year to date precipitation 19.81 18.16  
Snow  
Snow 0.00 in 0.10 in 11.80 in (2009)
Month to date snowfall 0.0 0.4  
Since 1 July snowfall 0.0 0.6  
Since 1 September snowfall 0.0 0.6  
Snow Depth 0.00 in    
Sea Level Pressure  
Sea Level Pressure 29.71 in    
Wind  
Wind Speed 12 mph (SSE)    
Max Wind Speed 37 mph    
Max Gust Speed 51 mph    
Visibility 9 miles    
Events Rain , Thunderstorm    
T = Trace of Precipitation, MM = Missing Value Source: NWS Daily Summary

Daily Weather History Graph

Daily Weather History Graph

Search for Another Location

Airport or City:

Trip Planner

Search our weather history database for the weather conditions in past years. The results will help you decide how hot, cold, wet, or windy it might be!

Date:

Astronomy

Oct. 10, 2013 Rise Set
Actual Time 7:49 AM CDT 7:09 PM CDT
Civil Twilight 7:21 AM CDT 7:36 PM CDT
Nautical Twilight 6:49 AM CDT 8:08 PM CDT
Astronomical Twilight 6:17 AM CDT 8:40 PM CDT
Moon 1:44 PM CDT (10/10) 11:47 PM CDT (10/10)
Length of Visible Light 12h 15m
Length of Day
11h 20m
Waxing Crescent, 36% of the Moon is Illuminated
Oct 10
Waxing Crescent
Oct 11
First Quarter
Oct 18
Full
Oct 26
Last Quarter
Nov 3
New

Hourly Weather History & Observations

Time (CDT) Temp. Windchill Dew Point Humidity Pressure Visibility Wind Dir Wind Speed Gust Speed Precip Events Conditions
12:53 AM 48.0 °F - 42.1 °F 80% 29.85 in 10.0 mi Calm Calm - N/A   Clear
1:53 AM 48.9 °F - 44.1 °F 83% 29.84 in 10.0 mi Calm Calm - N/A   Clear
2:53 AM 54.0 °F - 44.1 °F 69% 29.83 in 10.0 mi SE 5.8 mph - N/A   Clear
3:53 AM 55.0 °F - 45.0 °F 69% 29.81 in 10.0 mi SE 6.9 mph - N/A   Clear
4:53 AM 50.0 °F - 45.0 °F 83% 29.81 in 10.0 mi ESE 9.2 mph - N/A   Clear
5:53 AM 46.9 °F - 44.1 °F 90% 29.80 in 10.0 mi ESE 6.9 mph - N/A   Clear
6:53 AM 45.0 °F 40.6 °F 43.0 °F 93% 29.80 in 10.0 mi ESE 8.1 mph - N/A   Clear
7:53 AM 43.0 °F 39.5 °F 41.0 °F 93% 29.84 in 10.0 mi East 5.8 mph - N/A   Clear
8:53 AM 48.0 °F - 45.0 °F 89% 29.82 in 10.0 mi ESE 9.2 mph - N/A   Clear
9:53 AM 55.9 °F - 48.0 °F 75% 29.83 in 10.0 mi SE 4.6 mph - N/A   Clear
10:53 AM 60.1 °F - 48.9 °F 67% 29.81 in 10.0 mi SSE 4.6 mph - N/A   Clear
11:53 AM 63.0 °F - 48.0 °F 58% 29.80 in 10.0 mi South 5.8 mph - N/A   Clear
12:53 PM 66.0 °F - 48.0 °F 52% 29.77 in 10.0 mi South 4.6 mph - N/A   Clear
1:53 PM 71.1 °F - 51.1 °F 49% 29.72 in 10.0 mi SE 6.9 mph - N/A   Clear
2:53 PM 73.0 °F - 48.0 °F 41% 29.65 in 10.0 mi SE 12.7 mph 21.9 mph N/A   Clear
3:53 PM 75.9 °F - 50.0 °F 40% 29.60 in 10.0 mi SE 20.7 mph 28.8 mph N/A   Clear
4:53 PM 77.0 °F - 51.1 °F 40% 29.57 in 10.0 mi SE 17.3 mph 29.9 mph N/A   Clear
5:53 PM 77.0 °F - 50.0 °F 39% 29.54 in 10.0 mi SE 20.7 mph 28.8 mph N/A   Clear
6:53 PM 75.0 °F - 48.0 °F 38% 29.53 in 10.0 mi SE 13.8 mph 25.3 mph N/A   Clear
7:53 PM 73.9 °F - 48.9 °F 41% 29.51 in 10.0 mi SE 23.0 mph 33.4 mph N/A   Clear
8:53 PM 72.0 °F - 51.1 °F 48% 29.49 in 10.0 mi SSE 24.2 mph 36.8 mph N/A   Clear
9:51 PM 69.8 °F - 53.6 °F 56% 29.55 in 9.0 mi SSE 25.3 mph 40.3 mph N/A Thunderstorm Mostly Cloudy
9:53 PM 69.1 °F - 55.0 °F 61% 29.51 in 9.0 mi SSE 31.1 mph 40.3 mph N/A Thunderstorm Overcast
10:05 PM 59.0 °F - 55.4 °F 88% 29.63 in 2.5 mi SSW 17.3 mph 50.6 mph 0.05 in Rain , Thunderstorm Heavy Thunderstorms and Rain
10:22 PM 57.2 °F - 55.4 °F 94% 29.64 in 5.0 mi South 13.8 mph - 0.16 in Rain , Thunderstorm Rain
10:44 PM 57.2 °F - 53.6 °F 88% 29.65 in 5.0 mi SSW 10.4 mph - 0.23 in Rain Rain
10:53 PM 57.9 °F - 54.0 °F 87% 29.61 in 5.0 mi SSW 8.1 mph 18.4 mph 0.26 in Rain Rain
11:53 PM 57.0 °F - 53.1 °F 87% 29.50 in 10.0 mi SE 16.1 mph 24.2 mph 0.08 in   Overcast